Location: Peebles
(55.6412°N, 3.1714°W)
Time: 11:45:05
(UTC+01:00)

NOAA 16 DEB - Pass Details

Date: 07 July 2022
Orbit: 830 x 847 km, 98.8° (Epoch: 13 August)

Event Time Altitude Azimuth Distance (km) Brightness Sun altitude
Exits shadow 22:41:16 - 164° (SSE) 2,949 ? -5.1°
Reaches altitude 10° 22:42:34 10° 164° (SSE) 2,438 ? -5.2°
Maximum altitude 22:47:59 84° 253° (WSW) 847 ? -5.6°
Drops below altitude 10° 22:53:27 10° 342° (NNW) 2,463 ? -6.1°
Sets 22:55:50 0° 344° (NNW) 3,404 ? -6.2°
